Hourly Weather Cam Ranh

Today, 12 July, Sunday

Time Temperature Precipitation Wind Pressure Humidity
00:00 +28°C° 0 mm 3 mps 751 mmHg 86%
01:00 +28°C° 0 mm 2 mps 751 mmHg 85%
02:00 +28°C° 0 mm 2 mps 751 mmHg 83%
03:00 +28°C° 0 mm 2 mps 750 mmHg 82%
04:00 +28°C° 0 mm 2 mps 750 mmHg 81%
05:00 +28°C° 0 mm 3 mps 750 mmHg 79%
06:00 +28°C° 0 mm 3 mps 751 mmHg 78%
07:00 +29°C° 0 mm 3 mps 751 mmHg 75%
08:00 +30°C° 0 mm 3 mps 751 mmHg 70%
09:00 +33°C° 0 mm 3 mps 751 mmHg 64%
10:00 +34°C° 0 mm 3 mps 751 mmHg 59%
11:00 +34°C° 0 mm 4 mps 751 mmHg 59%
12:00 +35°C° 0 mm 5 mps 750 mmHg 59%
13:00 +35°C° 0 mm 5 mps 750 mmHg 59%
14:00 +35°C° 0.1 mm 6 mps 749 mmHg 62%
15:00 +34°C° 0.1 mm 6 mps 749 mmHg 65%
16:00 +34°C° 0.1 mm 6 mps 749 mmHg 68%
17:00 +33°C° 0 mm 6 mps 749 mmHg 73%
18:00 +30°C° 0 mm 5 mps 749 mmHg 78%
19:00 +29°C° 0 mm 4 mps 750 mmHg 83%
20:00 +29°C° 0 mm 4 mps 750 mmHg 83%
21:00 +29°C° 0 mm 4 mps 751 mmHg 83%
22:00 +29°C° 0 mm 3 mps 751 mmHg 84%
23:00 +28°C° 0 mm 3 mps 751 mmHg 83%

Tomorrow, 13 July, Monday

Time Temperature Precipitation Wind Pressure Humidity
00:00 +28°C° 0 mm 3 mps 751 mmHg 82%
01:00 +28°C° 0 mm 3 mps 751 mmHg 82%
02:00 +28°C° 0 mm 3 mps 751 mmHg 81%
03:00 +28°C° 0 mm 3 mps 751 mmHg 80%
04:00 +28°C° 0 mm 2 mps 750 mmHg 80%
05:00 +28°C° 0 mm 2 mps 751 mmHg 76%
06:00 +29°C° 0 mm 2 mps 751 mmHg 73%
07:00 +30°C° 0 mm 2 mps 751 mmHg 70%
08:00 +31°C° 0 mm 2 mps 751 mmHg 66%
09:00 +33°C° 0 mm 3 mps 751 mmHg 62%
10:00 +34°C° 0 mm 3 mps 751 mmHg 59%
11:00 +34°C° 0 mm 4 mps 751 mmHg 62%
12:00 +34°C° 0 mm 5 mps 751 mmHg 65%
13:00 +33°C° 0 mm 5 mps 750 mmHg 68%
14:00 +33°C° 0.2 mm 5 mps 750 mmHg 70%
15:00 +33°C° 0.2 mm 5 mps 750 mmHg 71%
16:00 +33°C° 0.2 mm 5 mps 749 mmHg 73%
17:00 +32°C° 0.5 mm 5 mps 750 mmHg 77%
18:00 +30°C° 0.5 mm 5 mps 750 mmHg 81%
19:00 +29°C° 0.5 mm 4 mps 750 mmHg 86%
20:00 +29°C° 0.1 mm 4 mps 751 mmHg 86%
21:00 +28°C° 0.1 mm 4 mps 751 mmHg 87%
22:00 +28°C° 0.1 mm 4 mps 752 mmHg 87%
23:00 +28°C° 0.1 mm 4 mps 751 mmHg 87%

Day after tomorrow, 14 July, Tuesday

Time Temperature Precipitation Wind Pressure Humidity
00:00 +28°C° 0.1 mm 4 mps 751 mmHg 88%
01:00 +27°C° 0.1 mm 4 mps 751 mmHg 88%
02:00 +27°C° 0 mm 3 mps 751 mmHg 87%
03:00 +27°C° 0 mm 2 mps 750 mmHg 86%
04:00 +27°C° 0 mm 2 mps 750 mmHg 85%
05:00 +28°C° 0 mm 2 mps 750 mmHg 83%
06:00 +28°C° 0 mm 1 mps 751 mmHg 80%
07:00 +29°C° 0 mm 1 mps 751 mmHg 77%
08:00 +30°C° 0 mm 1 mps 751 mmHg 72%
09:00 +31°C° 0 mm 1 mps 751 mmHg 67%
10:00 +34°C° 0 mm 2 mps 751 mmHg 62%
11:00 +32°C° 0.2 mm 2 mps 751 mmHg 65%
12:00 +32°C° 0.2 mm 2 mps 750 mmHg 68%
13:00 +33°C° 0.2 mm 3 mps 750 mmHg 71%
14:00 +33°C° 0.3 mm 3 mps 749 mmHg 71%
15:00 +33°C° 0.3 mm 3 mps 749 mmHg 71%
16:00 +33°C° 0.3 mm 3 mps 748 mmHg 71%
17:00 +31°C° 0.1 mm 2 mps 749 mmHg 76%
18:00 +30°C° 0.1 mm 2 mps 749 mmHg 81%
19:00 +29°C° 0.1 mm 2 mps 750 mmHg 85%
20:00 +29°C° 0.1 mm 3 mps 750 mmHg 86%
21:00 +29°C° 0.1 mm 3 mps 751 mmHg 87%
22:00 +28°C° 0.1 mm 3 mps 751 mmHg 88%
23:00 +28°C° 0 mm 3 mps 751 mmHg 88%

15 July, Wednesday

Time Temperature Precipitation Wind Pressure Humidity
00:00 +28°C° 0 mm 3 mps 751 mmHg 88%
01:00 +28°C° 0 mm 3 mps 750 mmHg 88%
02:00 +28°C° 0 mm 2 mps 750 mmHg 88%
03:00 +28°C° 0 mm 2 mps 750 mmHg 87%
04:00 +27°C° 0 mm 2 mps 750 mmHg 87%
05:00 +28°C° 0 mm 1 mps 750 mmHg 84%
06:00 +29°C° 0 mm 1 mps 750 mmHg 81%
07:00 +29°C° 0 mm 1 mps 751 mmHg 79%
08:00 +30°C° 0 mm 1 mps 751 mmHg 75%
09:00 +31°C° 0 mm 2 mps 751 mmHg 70%
10:00 +32°C° 0 mm 2 mps 751 mmHg 66%
11:00 +34°C° 0.1 mm 3 mps 750 mmHg 66%
12:00 +34°C° 0.1 mm 4 mps 750 mmHg 66%
13:00 +34°C° 0.1 mm 5 mps 749 mmHg 66%
14:00 +34°C° 0.2 mm 5 mps 749 mmHg 68%
15:00 +33°C° 0.2 mm 5 mps 748 mmHg 70%
16:00 +33°C° 0.2 mm 5 mps 748 mmHg 72%
17:00 +32°C° 0 mm 5 mps 748 mmHg 76%
18:00 +30°C° 0 mm 5 mps 749 mmHg 80%
19:00 +29°C° 0 mm 5 mps 749 mmHg 84%
20:00 +29°C° 0 mm 4 mps 750 mmHg 85%
21:00 +29°C° 0 mm 4 mps 750 mmHg 86%
22:00 +28°C° 0 mm 4 mps 751 mmHg 87%
23:00 +28°C° 0 mm 3 mps 750 mmHg 87%

16 July, Thursday

Time Temperature Precipitation Wind Pressure Humidity
00:00 +28°C° 0 mm 3 mps 750 mmHg 88%
01:00 +28°C° 0 mm 3 mps 750 mmHg 89%
02:00 +28°C° 0.2 mm 3 mps 750 mmHg 89%
03:00 +28°C° 0.2 mm 3 mps 750 mmHg 89%
04:00 +27°C° 0.2 mm 2 mps 749 mmHg 90%
05:00 +28°C° 0.2 mm 2 mps 750 mmHg 86%
06:00 +29°C° 0.2 mm 2 mps 750 mmHg 83%
07:00 +29°C° 0.2 mm 2 mps 751 mmHg 80%
08:00 +30°C° 1.1 mm 2 mps 751 mmHg 80%
09:00 +31°C° 1.1 mm 3 mps 751 mmHg 79%
10:00 +32°C° 1.1 mm 4 mps 751 mmHg 79%
11:00 +33°C° 0.7 mm 4 mps 750 mmHg 77%
12:00 +33°C° 0.7 mm 5 mps 750 mmHg 75%
13:00 +33°C° 0.7 mm 5 mps 749 mmHg 73%
14:00 +33°C° 0.1 mm 5 mps 749 mmHg 72%
15:00 +33°C° 0.1 mm 5 mps 748 mmHg 70%
16:00 +34°C° 0.1 mm 6 mps 748 mmHg 69%
17:00 +32°C° 0 mm 6 mps 748 mmHg 74%
18:00 +30°C° 0 mm 5 mps 749 mmHg 79%
19:00 +29°C° 0 mm 5 mps 749 mmHg 85%
20:00 +29°C° 0 mm 5 mps 750 mmHg 86%
21:00 +29°C° 0 mm 5 mps 750 mmHg 87%
22:00 +29°C° 0 mm 5 mps 751 mmHg 89%
23:00 +28°C° 0 mm 4 mps 751 mmHg 89%

17 July, Friday

Time Temperature Precipitation Wind Pressure Humidity
00:00 +28°C° 0 mm 4 mps 750 mmHg 89%
01:00 +28°C° 0 mm 4 mps 750 mmHg 90%
02:00 +28°C° 0 mm 4 mps 750 mmHg 89%
03:00 +28°C° 0 mm 4 mps 750 mmHg 88%
04:00 +27°C° 0 mm 3 mps 750 mmHg 88%
05:00 +28°C° 0 mm 3 mps 750 mmHg 84%
06:00 +29°C° 0 mm 3 mps 750 mmHg 81%
07:00 +29°C° 0 mm 3 mps 751 mmHg 78%
08:00 +30°C° 0 mm 3 mps 751 mmHg 73%
09:00 +33°C° 0 mm 4 mps 751 mmHg 68%
10:00 +34°C° 0 mm 4 mps 751 mmHg 63%
11:00 +34°C° 0 mm 4 mps 750 mmHg 62%
12:00 +35°C° 0 mm 5 mps 750 mmHg 61%
13:00 +35°C° 0 mm 5 mps 749 mmHg 60%
14:00 +35°C° 0.1 mm 5 mps 749 mmHg 63%
15:00 +34°C° 0.1 mm 5 mps 749 mmHg 66%
16:00 +34°C° 0.1 mm 5 mps 748 mmHg 68%
17:00 +33°C° 0.2 mm 5 mps 749 mmHg 74%
18:00 +32°C° 0.2 mm 5 mps 749 mmHg 80%
19:00 +29°C° 0.2 mm 5 mps 750 mmHg 86%
20:00 +29°C° 0.5 mm 5 mps 750 mmHg 87%
21:00 +29°C° 0.5 mm 5 mps 751 mmHg 88%
22:00 +28°C° 0.5 mm 4 mps 751 mmHg 89%
23:00 +28°C° 0 mm 4 mps 751 mmHg 89%
Show more